Regional Weather Roundup
Issued by NWS

Home | Current Version | Previous Version | Graphics & Text | Print | Product List | Glossary On
Versions: 1 2 3 4 5 6 7 8 9 10 11 12 13 14 15 16 17 18 19 20 21 22 23 24 25 26 27 28 29 30 31 32 33 34 35 36 37 38 39 40 41 42 43 44 45 46 47 48
000
ASUS45 KSLC 290910
RWRUT

UTAH REGIONAL WEATHER ROUNDUP
NATIONAL WEATHER SERVICE SALT LAKE CITY UT
200 AM MST THU JAN 29 2015

UTZ001>011-023>025-291000-

NORTHERN UTAH

CITY           SKY/WX    TMP DP  RH WIND       PRES   REMARKS
BRIGHAM CITY   CLEAR     32  30  94 CALM      30.39R
HILL AFB       CLEAR     34  33  96 SE7       30.37R WCI  27
LOGAN          CLOUDY    38  36  92 CALM      30.40R FOG
OGDEN          CLEAR     32  31  96 CALM      30.38R
PROVO AIRPORT  PTCLDY    34  28  80 E5        30.37S WCI  30
SALT LAKE CITY PTCLDY    34  32  92 S3        30.39R
VERNAL         CLOUDY    37  28  70 W6        30.35R WCI  32
WENDOVER       CLOUDY    37  30  75 CALM      30.38F
HEBER CITY     CLEAR     28  28 100 CALM      30.38R
WEST JORDAN    CLEAR     34  34 100 CALM      30.39S

$$

UTZ012>022-026-027-291000-

SOUTHERN/CENTRAL UTAH

CITY           SKY/WX    TMP DP  RH WIND       PRES   REMARKS
BLANDING       CLOUDY    37  31  81 N8        30.36S WCI  30
BRYCE CANYON   CLOUDY    29  26  89 NW5       30.34S WCI  24
CEDAR CITY     CLOUDY    34  29  82 SW3       30.30S
DELTA          MOCLDY    32  31  95 S3        30.35R
HANKSVILLE     CLOUDY    32  30  93 W3        30.34R
MILFORD        CLOUDY    32  29  88 N5        30.33S WCI  27
MOAB/CYNLANDS  CLEAR     31  28  89 W3        30.30R
PRICE          PTCLDY    38  26  62 CALM      30.32R
ST GEORGE      SUNNY     48  39  71 S3        30.25S

$$

REGIONAL REPORTS     COLORADO/ARIZONA

CITY           SKY/WX    TMP DP  RH WIND       PRES   REMARKS
CRAIG, CO      CLOUDY    32  30  92 CALM      30.36R
GRAND JUNCTION MOCLDY    34  28  79 E6        30.32R WCI  29
RIFLE          CLOUDY    34  28  79 CALM      30.36R
MONTROSE       CLOUDY    32  26  78 S9        30.35S WCI  24
CORTEZ         CLEAR     31  26  82 CALM      30.31S
PAGE, AZ       NOT AVBL
GRAND CANYON   CLOUDY    41  30  65 E6        30.28S
KINGMAN        CLOUDY    47  42  83 E7        30.18F
FLAGSTAFF      CLOUDY    36  28  73 E3        30.29S

$$

REGIONAL REPORTS    NEVADA/IDAHO/WYOMING

CITY           SKY/WX    TMP DP  RH WIND       PRES   REMARKS
LAS VEGAS, NV  CLOUDY    57  44  62 S3        30.14S
ELY            PTCLDY    26  24  92 S9        30.36R WCI  17
ELKO           CLEAR     29  27  92 E5        30.35F WCI  24
POCATELLO, ID  CLOUDY    34  34 100 E3        30.44R FOG
BURLEY         CLOUDY    36  33  89 NE8       30.42R WCI  30
EVANSTON, WY   CLOUDY    31  29  92 N5        30.39R WCI  26
ROCK SPRINGS   PTCLDY    29  27  92 NW5       30.37R WCI  24
KEMMERER       CLEAR     25  23  93 N9        30.38S WCI  15

$$


USA.gov is the U.S. government's official web portal to all federal, state and local government web resources and services.